Location: Cahas Mountain Overlook
(37.0833°N, 80.1000°W)
Time: 08:03:27
(UTC-05:00)

LilacSat-2 - Visible Passes

Search period start: 05 March 2024 00:00
Search period end: 15 March 2024 01:00
Orbit: 485 x 502 km, 97.5° (Epoch: 05 March)

Date Brightness Start Highest point End Pass type
(mag) Time Alt. Az. Time Alt. Az. Time Alt. Az.
05 Mar ? 18:56:43 10° WSW 18:58:28 13° W 19:00:13 10° WNW visible
07 Mar ? 06:03:42 10° NE 06:06:54 28° E 06:10:06 10° SSE visible
08 Mar ? 05:43:02 10° ENE 05:45:13 15° E 05:47:23 10° SE visible
09 Mar ? 19:05:02 10° WSW 19:05:47 11° W 19:06:33 10° W visible
11 Mar ? 07:10:44 10° NNE 07:14:07 34° E 07:17:30 10° SSE visible
12 Mar ? 06:49:47 10° NE 06:52:23 18° E 06:54:59 10° SE visible
14 Mar ? 19:48:39 10° SW 19:51:02 17° W 19:53:26 10° NW visible
